Location: Heisede
(52.2582°N, 9.8523°E)
Time: 10:07:44
(UTC+00:00)

ARIANE 6 FM1 Upper Stage - Pass Details

Date: 13 January 2026
Orbit: 522 x 608 km, 62.0° (Epoch: 19 February)

Event Time Altitude Azimuth Distance (km) Brightness Sun altitude
Exits shadow 05:14:03 33° 224° (SW) 903 3.4 -19.1°
Drops below altitude 10° 05:17:24 10° 168° (SSE) 1,781 5.5 -18.6°
Sets 05:19:45 0° 159° (SSE) 2,679 6.6 -18.2°
